Theta_e
338 338 338 337 336 336 337 335 331 329 330 332 333 332 328 324 322 322 323 324 326 326 323 322 326 321 323 328 327 328 330 329 329
337 337 338 338 338 338 337 337 337 337 335 332 330 332 331 328 325 323 323 324 325 325 330 326 321 325 323 325 326 325 325 328 329
336 337 336 336 337 337 337 337 337 337 337 337 336 333 331 331 329 326 324 324 325 326 329 331 329 322 321 323 323 325 327 328 327
329 332 333 334 334 334 336 336 337 337 337 337 337 337 335 332 331 330 328 326 325 326 326 330 331 329 324 320 320 323 324 326 325
325 325 326 327 328 329 330 332 334 336 336 337 337 337 337 336 334 333 331 330 329 327 326 327 332 332 328 326 325 320 324 323 323
312 316 320 323 324 325 326 327 327 328 328 329 333 336 337 337 336 335 335 334 333 331 330 328 327 330 332 328 325 323 324 322 323
308 309 310 311 312 314 317 321 323 324 324 324 325 327 333 335 336 336 336 336 335 334 334 332 330 328 328 330 327 324 321 322 323
307 308 308 308 308 308 308 309 311 313 315 317 320 323 326 331 334 335 335 334 334 334 335 336 334 332 332 329 329 328 327 321 322
310 311 311 311 311 310 309 308 308 307 308 310 312 316 320 323 327 330 331 331 332 333 334 335 335 335 334 332 330 331 330 330 323
308 308 308 308 309 310 311 312 312 311 309 308 308 311 313 315 317 320 324 329 330 330 331 333 333 334 334 334 333 332 332 332 332
304 304 303 304 304 304 305 306 307 308 310 312 311 309 309 310 312 315 317 318 322 326 328 328 329 331 333 334 334 334 334 334 333
303 303 303 302 302 302 302 303 303 304 305 307 308 309 311 311 310 309 309 314 318 319 320 321 324 327 329 332 334 336 335 335 334
300 300 301 301 301 300 300 301 301 301 302 303 305 306 307 309 311 311 311 309 309 311 315 319 319 319 323 325 328 331 332 333 335
299 300 299 299 299 300 302 303 305 307 309 309 308 308 308 308 307 307 310 312 312 311 310 310 313 317 319 320 321 322 324 331 333
297 297 298 299 301 304 306 308 308 308 308 308 308 308 309 309 309 309 309 310 312 312 312 312 311 311 311 315 318 320 322 323 326
297 297 299 301 305 307 308 307 307 307 308 308 309 310 311 310 311 312 312 312 312 312 313 313 313 313 312 312 312 316 317 317 319
298 297 299 300 307 307 307 306 307 307 308 308 310 310 311 312 311 311 311 311 312 311 312 312 312 312 312 313 313 313 313 313 313
298 297 298 299 305 307 306 306 307 307 308 309 309 310 310 308 311 310 310 311 310 310 310 310 311 311 311 312 312 313 314 314 315
298 297 297 298 300 302 306 306 306 307 308 309 309 309 308 308 308 309 310 309 309 308 307 307 307 307 308 309 310 311 311 312 313
299 297 296 297 298 298 299 306 305 306 307 308 308 307 307 307 307 307 307 307 308 307 306 305 305 305 305 305 305 306 306 307 309
Wind_Speed
13 13 13 11 12 11 12 12 11 10 11 10 9 9 9 9 8 7 6 5 5 5 2 3 5 8 10 6 6 5 5 4 3
13 14 14 13 13 13 13 13 13 13 13 12 10 10 10 10 10 10 9 8 7 6 5 7 6 7 8 9 9 9 10 9 9
17 17 17 17 16 16 16 14 14 15 14 14 13 11 11 12 12 12 12 11 10 9 7 11 9 9 9 11 11 12 9 12 10
20 21 20 20 19 19 19 18 17 17 17 16 14 15 14 14 14 14 14 14 14 13 11 10 14 13 11 11 14 12 15 18 17
23 23 22 22 22 22 20 21 21 20 19 18 17 16 16 17 16 15 15 15 16 16 15 13 16 18 16 13 13 15 15 16 17
25 26 26 25 24 23 23 22 22 22 23 22 21 19 20 19 19 18 16 17 18 18 19 18 17 20 20 17 14 15 16 16 15
26 26 27 26 26 26 26 26 26 25 25 24 23 22 24 24 22 22 21 21 20 21 23 22 21 22 23 22 19 17 17 18 15
24 25 25 26 26 27 27 28 28 28 27 26 25 24 23 23 24 25 23 24 24 24 24 25 25 23 24 24 23 20 19 18 18
22 21 21 23 24 25 26 26 27 27 28 28 28 26 25 25 26 26 25 23 23 24 24 23 24 26 25 25 25 25 22 21 20
20 20 19 19 19 20 22 23 24 26 27 28 29 29 28 28 28 28 27 26 25 25 26 27 25 26 27 27 26 26 25 24 23
21 19 18 19 19 19 20 21 21 21 23 24 26 29 30 31 31 31 30 28 28 27 27 27 26 26 26 28 29 29 30 30 27
23 23 21 20 20 20 20 20 20 21 21 21 21 23 25 28 30 31 32 32 31 30 30 29 28 26 25 27 26 30 30 33 33
20 21 23 23 21 20 20 20 20 20 20 20 20 22 23 23 24 26 29 31 31 31 32 32 32 31 28 27 25 29 26 32 34
19 19 20 21 22 21 20 19 21 20 19 20 20 20 20 20 21 23 23 23 24 27 29 29 32 32 31 30 30 30 29 26 30
20 19 19 19 19 20 19 19 17 18 18 18 18 17 17 16 14 16 16 15 16 17 19 23 26 29 31 29 29 28 28 28 26
21 18 17 18 17 17 16 14 13 10 14 14 11 7 6 3 1 3 2 4 5 7 9 11 13 16 20 24 28 29 31 34 33
20 18 15 16 15 13 13 13 11 8 8 7 7 4 1 3 5 3 4 5 4 6 8 10 12 14 15 17 17 19 24 28 31
19 18 17 15 14 12 11 11 11 7 4 5 3 3 4 14 2 4 8 8 10 11 12 15 16 18 19 19 18 19 19 18 18
18 17 17 16 14 13 10 10 9 6 4 1 1 3 7 4 8 5 8 14 8 14 14 14 16 17 19 20 21 21 22 22 22
18 17 17 16 15 14 13 9 7 6 5 4 5 6 9 10 7 17 13 19 14 15 15 15 14 14 15 16 17 19 20 22 23
Wind_Direction
280 282 279 277 280 279 280 282 284 280 278 274 274 275 278 278 280 278 288 295 275 281 270 305 271 252 253 244 222 205 206 231 184
291 292 291 286 280 278 273 275 279 282 277 277 271 268 269 270 273 274 279 283 285 287 277 312 290 271 256 248 241 235 227 233 221
281 282 284 286 283 283 277 274 273 277 278 275 273 270 266 269 271 272 272 276 280 279 259 282 291 288 267 258 251 248 235 231 238
284 281 281 280 281 283 282 282 283 282 278 273 271 267 268 267 267 268 272 274 275 274 272 258 274 282 285 269 256 249 236 240 258
282 280 280 279 279 279 279 280 282 281 279 281 274 269 265 265 270 268 269 271 273 276 271 266 256 267 280 285 263 253 250 251 255
281 280 279 278 275 274 275 274 275 275 276 276 272 268 264 263 263 264 267 271 271 271 272 269 263 262 269 277 274 263 259 259 256
281 280 279 278 275 273 271 270 271 272 273 274 273 270 264 263 263 265 263 263 264 269 270 268 265 263 263 265 268 267 261 261 257
281 279 279 279 277 275 273 270 270 270 271 271 271 270 268 266 263 263 265 267 261 264 268 267 267 264 264 259 260 261 264 263 260
290 287 283 280 278 275 274 271 269 267 266 266 266 266 265 264 263 263 264 268 270 258 262 263 263 260 263 262 255 256 260 264 261
290 289 287 284 281 279 277 275 272 269 267 264 264 263 263 263 265 265 264 262 262 261 259 262 264 264 263 263 259 255 257 260 263
296 292 289 289 288 286 284 283 280 276 273 269 267 266 266 265 265 266 267 265 263 262 262 264 265 264 263 261 260 259 259 260 263
302 298 294 292 292 291 288 286 286 285 282 279 275 272 270 268 267 266 265 264 264 265 266 267 269 268 266 262 258 260 261 262 261
299 299 299 298 296 294 292 290 284 282 283 283 282 280 278 276 275 271 268 266 265 264 263 266 268 269 269 268 270 263 269 259 260
306 305 304 303 303 300 298 295 292 290 288 286 285 285 285 283 276 273 270 269 268 266 265 265 264 267 269 270 271 273 271 267 255
311 310 307 306 307 307 303 301 297 298 296 292 296 298 292 285 283 280 271 267 267 270 270 268 267 266 265 266 267 267 270 270 266
314 313 312 312 316 314 309 309 305 302 298 307 305 317 318 263 299 318 275 206 239 253 265 271 274 272 270 267 263 263 264 267 269
318 316 315 316 320 322 316 317 320 329 310 326 346 358 301 174 303 228 219 215 244 271 274 271 271 272 272 271 269 267 266 268 269
322 319 319 318 320 323 320 320 327 341 336 339 355 3 350 329 200 292 240 243 280 278 280 278 276 274 273 273 269 266 267 269 271
324 322 320 319 318 317 311 311 317 323 318 295 189 311 311 315 306 234 247 278 274 299 293 289 284 282 279 276 274 272 270 268 266
322 322 322 320 319 319 314 296 291 294 288 279 275 291 297 300 281 298 310 307 299 313 305 300 295 290 285 282 277 273 270 266 265